• In United Kingdom
  • List of Countries
  • For 7 days
  • Water Temperature
  • Satellite Maps
  • Weather Map
  • Weather Widgets
  • user-avatar
    Login

    Hourly Weather Khulna

    Today, 19 February, Monday

    Time Temperature Precipitation Wind Pressure Humidity
    00:00 +21°C° 0 mm 0 mps 758 mmHg 34%
    01:00 +21°C° 0 mm 0 mps 758 mmHg 35%
    02:00 +20°C° 0 mm 0 mps 758 mmHg 36%
    03:00 +20°C° 0 mm 0 mps 757 mmHg 37%
    04:00 +20°C° 0 mm 0 mps 758 mmHg 38%
    05:00 +19°C° 0 mm 0 mps 758 mmHg 38%
    06:00 +19°C° 0 mm 0 mps 758 mmHg 39%
    07:00 +23°C° 0 mm 1 mps 759 mmHg 36%
    08:00 +25°C° 0 mm 1 mps 759 mmHg 33%
    09:00 +27°C° 0 mm 1 mps 760 mmHg 30%
    10:00 +29°C° 0 mm 1 mps 760 mmHg 27%
    11:00 +31°C° 0 mm 1 mps 760 mmHg 24%
    12:00 +33°C° 0 mm 1 mps 759 mmHg 21%
    13:00 +33°C° 0 mm 1 mps 759 mmHg 20%
    14:00 +33°C° 0 mm 1 mps 758 mmHg 18%
    15:00 +35°C° 0 mm 2 mps 757 mmHg 17%
    16:00 +32°C° 0 mm 1 mps 757 mmHg 19%
    17:00 +31°C° 0 mm 1 mps 757 mmHg 21%
    18:00 +29°C° 0 mm 1 mps 757 mmHg 24%
    19:00 +28°C° 0 mm 1 mps 757 mmHg 28%
    20:00 +27°C° 0 mm 2 mps 758 mmHg 31%
    21:00 +26°C° 0 mm 2 mps 758 mmHg 35%
    22:00 +25°C° 0 mm 2 mps 758 mmHg 40%
    23:00 +24°C° 0 mm 2 mps 758 mmHg 46%

    Tomorrow, 20 February, Tuesday

    Time Temperature Precipitation Wind Pressure Humidity
    00:00 +24°C° 0 mm 2 mps 758 mmHg 51%
    01:00 +23°C° 0 mm 2 mps 758 mmHg 53%
    02:00 +23°C° 0 mm 2 mps 758 mmHg 55%
    03:00 +23°C° 0 mm 2 mps 758 mmHg 57%
    04:00 +21°C° 0 mm 2 mps 758 mmHg 58%
    05:00 +21°C° 0 mm 2 mps 758 mmHg 59%
    06:00 +21°C° 0 mm 2 mps 758 mmHg 61%
    07:00 +24°C° 0 mm 2 mps 759 mmHg 55%
    08:00 +26°C° 0 mm 2 mps 759 mmHg 49%
    09:00 +28°C° 0 mm 2 mps 760 mmHg 43%
    10:00 +30°C° 0 mm 2 mps 760 mmHg 37%
    11:00 +32°C° 0 mm 2 mps 759 mmHg 31%
    12:00 +35°C° 0 mm 2 mps 759 mmHg 25%
    13:00 +35°C° 0 mm 2 mps 758 mmHg 23%
    14:00 +36°C° 0 mm 2 mps 757 mmHg 22%
    15:00 +36°C° 0 mm 2 mps 756 mmHg 20%
    16:00 +35°C° 0 mm 2 mps 756 mmHg 23%
    17:00 +32°C° 0 mm 2 mps 756 mmHg 25%
    18:00 +31°C° 0 mm 1 mps 756 mmHg 27%
    19:00 +30°C° 0 mm 1 mps 756 mmHg 30%
    20:00 +28°C° 0 mm 2 mps 757 mmHg 33%
    21:00 +27°C° 0 mm 2 mps 757 mmHg 36%
    22:00 +27°C° 0 mm 2 mps 757 mmHg 38%
    23:00 +26°C° 0 mm 1 mps 757 mmHg 40%

    Day after tomorrow, 21 February, Wednesday

    Time Temperature Precipitation Wind Pressure Humidity
    00:00 +25°C° 0 mm 1 mps 757 mmHg 42%
    01:00 +25°C° 0 mm 1 mps 756 mmHg 42%
    02:00 +24°C° 0 mm 1 mps 756 mmHg 43%
    03:00 +24°C° 0 mm 1 mps 756 mmHg 44%
    04:00 +23°C° 0 mm 1 mps 756 mmHg 44%
    05:00 +23°C° 0 mm 1 mps 756 mmHg 45%
    06:00 +23°C° 0 mm 1 mps 756 mmHg 46%
    07:00 +25°C° 0 mm 1 mps 757 mmHg 42%
    08:00 +27°C° 0 mm 1 mps 758 mmHg 38%
    09:00 +29°C° 0 mm 1 mps 759 mmHg 33%
    10:00 +31°C° 0 mm 1 mps 758 mmHg 30%
    11:00 +33°C° 0 mm 1 mps 758 mmHg 27%
    12:00 +36°C° 0 mm 2 mps 757 mmHg 23%
    13:00 +36°C° 0 mm 2 mps 756 mmHg 22%
    14:00 +37°C° 0 mm 3 mps 756 mmHg 21%
    15:00 +37°C° 0 mm 3 mps 755 mmHg 20%
    16:00 +36°C° 0 mm 3 mps 755 mmHg 22%
    17:00 +34°C° 0 mm 2 mps 755 mmHg 25%
    18:00 +32°C° 0 mm 2 mps 754 mmHg 27%
    19:00 +31°C° 0 mm 2 mps 755 mmHg 30%
    20:00 +29°C° 0 mm 2 mps 755 mmHg 33%
    21:00 +28°C° 0 mm 2 mps 756 mmHg 35%
    22:00 +27°C° 0 mm 2 mps 756 mmHg 37%
    23:00 +26°C° 0 mm 2 mps 756 mmHg 39%

    22 February, Thursday

    Time Temperature Precipitation Wind Pressure Humidity
    00:00 +26°C° 0 mm 2 mps 756 mmHg 41%
    01:00 +25°C° 0 mm 2 mps 756 mmHg 42%
    02:00 +25°C° 0 mm 2 mps 755 mmHg 44%
    03:00 +24°C° 0 mm 3 mps 755 mmHg 45%
    04:00 +24°C° 0 mm 2 mps 755 mmHg 46%
    05:00 +24°C° 0 mm 2 mps 756 mmHg 47%
    06:00 +23°C° 0 mm 2 mps 756 mmHg 48%
    07:00 +25°C° 0 mm 2 mps 756 mmHg 43%
    08:00 +27°C° 0 mm 1 mps 757 mmHg 38%
    09:00 +29°C° 0 mm 1 mps 758 mmHg 34%
    10:00 +31°C° 0 mm 2 mps 758 mmHg 30%
    11:00 +34°C° 0 mm 2 mps 757 mmHg 26%
    12:00 +36°C° 0 mm 3 mps 757 mmHg 23%
    13:00 +37°C° 0 mm 3 mps 756 mmHg 21%
    14:00 +37°C° 0 mm 3 mps 755 mmHg 19%
    15:00 +38°C° 0 mm 4 mps 755 mmHg 17%
    16:00 +36°C° 0 mm 3 mps 755 mmHg 19%
    17:00 +34°C° 0 mm 3 mps 755 mmHg 20%
    18:00 +32°C° 0 mm 2 mps 755 mmHg 22%
    19:00 +30°C° 0 mm 2 mps 755 mmHg 23%
    20:00 +29°C° 0 mm 2 mps 756 mmHg 25%
    21:00 +28°C° 0 mm 2 mps 756 mmHg 26%
    22:00 +27°C° 0 mm 2 mps 756 mmHg 27%
    23:00 +27°C° 0 mm 1 mps 756 mmHg 28%

    23 February, Friday

    Time Temperature Precipitation Wind Pressure Humidity
    00:00 +26°C° 0 mm 1 mps 757 mmHg 29%
    01:00 +26°C° 0 mm 1 mps 756 mmHg 30%
    02:00 +25°C° 0 mm 1 mps 756 mmHg 31%
    03:00 +24°C° 0 mm 1 mps 756 mmHg 32%
    04:00 +24°C° 0 mm 1 mps 756 mmHg 34%
    05:00 +23°C° 0 mm 1 mps 757 mmHg 35%
    06:00 +23°C° 0 mm 1 mps 757 mmHg 36%
    07:00 +25°C° 0 mm 1 mps 758 mmHg 33%
    08:00 +27°C° 0 mm 1 mps 758 mmHg 29%
    09:00 +29°C° 0 mm 1 mps 759 mmHg 26%
    10:00 +31°C° 0 mm 2 mps 758 mmHg 23%
    11:00 +34°C° 0 mm 2 mps 758 mmHg 20%
    12:00 +36°C° 0 mm 2 mps 758 mmHg 17%
    13:00 +37°C° 0 mm 3 mps 757 mmHg 15%
    14:00 +37°C° 0 mm 4 mps 756 mmHg 14%
    15:00 +38°C° 0 mm 4 mps 755 mmHg 12%
    16:00 +36°C° 0 mm 4 mps 756 mmHg 15%
    17:00 +34°C° 0 mm 3 mps 756 mmHg 17%
    18:00 +33°C° 0 mm 3 mps 756 mmHg 19%
    19:00 +30°C° 0 mm 2 mps 756 mmHg 21%
    20:00 +29°C° 0 mm 2 mps 757 mmHg 23%
    21:00 +28°C° 0 mm 1 mps 757 mmHg 25%
    22:00 +27°C° 0 mm 1 mps 757 mmHg 26%
    23:00 +26°C° 0 mm 1 mps 757 mmHg 28%

    24 February, Saturday

    Time Temperature Precipitation Wind Pressure Humidity
    00:00 +26°C° 0 mm 1 mps 757 mmHg 30%
    01:00 +25°C° 0 mm 1 mps 757 mmHg 31%
    02:00 +25°C° 0 mm 1 mps 757 mmHg 33%
    03:00 +24°C° 0 mm 1 mps 757 mmHg 34%
    04:00 +24°C° 0 mm 1 mps 757 mmHg 34%
    05:00 +24°C° 0 mm 1 mps 758 mmHg 34%
    06:00 +23°C° 0 mm 1 mps 758 mmHg 34%
    07:00 +26°C° 0 mm 1 mps 759 mmHg 31%
    08:00 +28°C° 0 mm 1 mps 759 mmHg 27%
    09:00 +31°C° 0 mm 1 mps 760 mmHg 24%
    10:00 +32°C° 0 mm 1 mps 759 mmHg 22%
    11:00 +35°C° 0 mm 2 mps 759 mmHg 19%
    12:00 +37°C° 0 mm 2 mps 759 mmHg 17%
    13:00 +37°C° 0 mm 3 mps 758 mmHg 16%
    14:00 +38°C° 0 mm 3 mps 758 mmHg 16%
    15:00 +38°C° 0 mm 4 mps 757 mmHg 15%
    16:00 +36°C° 0 mm 3 mps 757 mmHg 17%
    17:00 +35°C° 0 mm 3 mps 757 mmHg 20%
    18:00 +32°C° 0 mm 2 mps 757 mmHg 22%
    19:00 +31°C° 0 mm 2 mps 758 mmHg 24%
    20:00 +30°C° 0 mm 2 mps 758 mmHg 26%
    21:00 +28°C° 0 mm 1 mps 758 mmHg 27%
    22:00 +28°C° 0 mm 1 mps 758 mmHg 29%
    23:00 +27°C° 0 mm 1 mps 758 mmHg 31%
    Show more